This is the latest recevied weather packets stored in our database for station/object KE0PRS. If no packets are shown the sender has not sent any weather packets the latest 10 day(s).
| Time | Temp. | Humidity | Pressure | Rain* | Wind** | Luminosity | Snow |
|---|---|---|---|---|---|---|---|
| 1787414989 | 26.67° C | 67% | 1021.6 hPa | 0 mm | - | 528 W/m² | - |
| 1787414684 | 26.67° C | 67% | 1021.7 hPa | 0 mm | - | 516 W/m² | - |
| 1787414384 | 26.67° C | 67% | 1021.3 hPa | 0 mm | - | 505 W/m² | - |
| 1787414083 | 26.67° C | 66% | 1021.2 hPa | 0 mm | - | 487 W/m² | - |
| 1787413778 | 26.11° C | 68% | 1021.3 hPa | 0 mm | - | 470 W/m² | - |
| 1787413473 | 26.11° C | 69% | 1021.2 hPa | 0 mm | - | 461 W/m² | - |
| 1787413168 | 25.56° C | 70% | 1021.2 hPa | 0 mm | - | 433 W/m² | - |
| 1787412864 | 25.56° C | 69% | 1021.3 hPa | 0 mm | - | 431 W/m² | - |
| 1787412564 | 25.56° C | 69% | 1021.4 hPa | 0 mm | - | 386 W/m² | - |
| 1787412259 | 25.56° C | 70% | 1021.1 hPa | 0 mm | - | 379 W/m² | - |
| 1787411956 | 25.56° C | 69% | 1021.2 hPa | 0 mm | - | 383 W/m² | - |
| 1787411653 | 25.56° C | 69% | 1021.1 hPa | 0 mm | - | 343 W/m² | - |
| 1787411347 | 25° C | 69% | 1021.1 hPa | 0 mm | - | 315 W/m² | - |
| 1787411043 | 25° C | 69% | 1020.8 hPa | 0 mm | - | 323 W/m² | - |
| 1787410738 | 25° C | 70% | 1020.8 hPa | 0 mm | - | 338 W/m² | - |
| 1787410429 | 25° C | 71% | 1021.1 hPa | 0 mm | - | 337 W/m² | - |
| 1787410129 | 25° C | 72% | 1021 hPa | 0 mm | - | 313 W/m² | - |
| 1787409826 | 25° C | 73% | 1021 hPa | 0 mm | - | 285 W/m² | - |
| 1787409521 | 25° C | 73% | 1021 hPa | 0 mm | - | 334 W/m² | - |
| 1787409217 | 25° C | 74% | 1021.4 hPa | 0 mm | - | 271 W/m² | - |
| 1787408913 | 25° C | 76% | 1021.2 hPa | 0 mm | - | 241 W/m² | - |
| 1787408303 | 25.56° C | 75% | 1021.3 hPa | 0 mm | - | 209 W/m² | - |
| 1787407999 | 25.56° C | 77% | 1020.8 hPa | 0 mm | - | 173 W/m² | - |
| 1787407694 | 25° C | 76% | 1020.6 hPa | 0 mm | - | 164 W/m² | - |
| 1787407390 | 25° C | 73% | 1020.2 hPa | 0 mm | - | 112 W/m² | - |
* Rain latest hour (hover to see other rain measurements)
** Current wind speed in m/s (hover to see current wind gust speed)